Showing default

KUIPER-00480, 68876

Orbit data source: Space-Track

KUIPER-00480, 68876 is an American payload satellite in LEO that was launched on Tue, 28 Apr 2026 UTC launched from the Air Force Eastern Test Range (AFETR). Payload-class satellites include a variety of spacecraft equipped with specific instruments for various scientific and technological missions. These include communications satellites like Starlink; space stations such as the ISS; scientific satellites like the Hubble; Earth observation satellites from companies like Planet Labs, Umbra, and HawkEye 360; GPS; miniature CubeSats for education and research; and military/defense satellites.

Loading next visibility...
Identifier
68876, 2026-095N
Orbit
LEO
Country
Flag of USUS
Related business
None
Manufacturer
Unknown
Mission
Operational spacecraft
Bus & Motor
Unknown
Mass
Unknown
Launch date (UTC)
2026-04-28 (4 days ago)
Launch vehicle
Unknown
Launch site
Air Force Eastern Test Range (AFETR)
Object type
Payload
Rocket body
Debris
Shape & HBR
Unknown
Radar Cross Section
RCS unknown

Expand to show TLE details & history
Last TLE update: 7 hours ago

TLE from 7 hours ago
0 KUIPER-00480
1 68876U 26095N   26122.16670139 -.00001666  00000-0 -34615-4 0  9997
2 68876  51.8758 104.9217 0006962 119.9964  78.6185 15.36987948  1878
Epoch: 2026-05-02T04:00Z
TLE epoch observation values (Epoch: 2026-05-02T04:00:03.000Z)
Latitude
-14.76156°
Longitude
16.68761°
Altitude
457.916 km
Speed
7.639 km/s
True Right ascension
19h 47m 09s
True Declination
-14° 40' 24"
Sunlit
Object was in daylight at epoch
Visualization orbit readout
Latitude
Unknown
Longitude
Unknown
Altitude
Unknown
Speed
Unknown
Apparent Right ascension
Unknown
Apparent Declination
Unknown
Sunlit
N/A
Visualization observer readout
Local Sidereal Time
18:37:47
Azimuth
Unknown
Elevation
Unknown
Doppler factor
Unknown
Orbital elements
Apogee altitude
460.246 km
Perigee altitude
450.731 km
Semi-major axis
6,833.626 km
Eccentricity
0.0007
Inclination
51.8758°
RAAN
104.9217°
Arg. of periapsis
119.9964°
True anomaly
78.69672°
Mean anomaly
78.6185°
Eccentric anomaly
78.65761°
Mean motion
3.84208 °/min
Orbital period
93.7 mins
BSTAR
-0.000034615
Loading maneuver chart data...
Computing Atmospheric mass density...
Loading historical data...
Loading historical data...
Loading historical data...
Loading historical data...
Loading historical data...
Loading historical data...
Loading historical data...

Documentation

Showing up to 5 results
|